This demonstration page uses our WeatherBlox Daily Observations layout. Learn more.

Left ArrowRight Arrow

Hourly Observations for August 24, 2018

Temp ( °F °C ) Dew Point ( °F °C ) Humidity (%) Winds ( mph kmh ) Pressure ( in mb ) Visibility ( mi km ) Precip ( " mm )
12:59 am 00:59 Clear 71 21.7 58 14.4 63 63 ENE 5 7 30.16 1021 10 16 0.00 0.00
1:59 am 01:59 Clear 70 21.1 58 14.4 66 66 ENE 5 7 30.15 1021 10 16 0.00 0.00
2:59 am 02:59 Clear 69 20.6 57 13.9 66 66 E 3 6 30.15 1021 10 16 0.00 0.00
3:59 am 03:59 Clear 66 18.9 58 14.4 75 75 Calm 30.15 1021 10 16 0.00 0.00
4:59 am 04:59 Clear 65 18.3 57 13.9 76 76 E 3 6 30.16 1021 10 16 0.00 0.00
5:59 am 05:59 Clear 65 18.3 57 13.9 76 76 E 3 6 30.16 1022 10 16 0.00 0.00
6:59 am 06:59 Sunny 64 17.8 58 14.4 81 81 SSE 3 6 30.18 1022 10 16 0.00 0.00
7:59 am 07:59 Mostly Sunny 73 22.8 60 15.6 64 64 E 5 7 30.20 1023 10 16 0.00 0.00
8:59 am 08:59 Mostly Sunny 76 24.4 59 15 56 56 E 8 13 30.20 1023 10 16 0.00 0.00
9:59 am 09:59 Mostly Sunny 78 25.6 60 15.6 54 54 E 8 13 30.22 1023 10 16 0.00 0.00
10:59 am 10:59 Mostly Sunny 79 26.1 60 15.6 52 52 ENE 13 20 30.23 1024 10 16 0.00 0.00
11:59 am 11:59 Mostly Sunny 80 26.7 61 16.1 52 52 ENE 10 17 30.22 1024 10 16 0.00 0.00
12:59 pm 12:59 Mostly Sunny 80 26.7 61 16.1 52 52 ENE 13 20 30.23 1024 10 16 0.00 0.00
1:59 pm 13:59 Mostly Sunny 80 26.7 62 16.7 54 54 ENE 10 17 30.23 1024 10 16 0.00 0.00
2:59 pm 14:59 Mostly Sunny 81 27.2 61 16.1 51 51 ENE 10 17 30.22 1023 10 16 0.00 0.00
3:59 pm 15:59 Mostly Sunny 80 26.7 61 16.1 52 52 ENE 10 17 30.21 1023 10 16 0.00 0.00
4:59 pm 16:59 Mostly Sunny 79 26.1 61 16.1 54 54 E 13 20 30.21 1023 10 16 0.00 0.00
5:59 pm 17:59 Mostly Sunny 79 26.1 62 16.7 56 56 E 9 15 30.20 1023 10 16 0.00 0.00
6:59 pm 18:59 Mostly Sunny 77 25 62 16.7 60 60 E 8 13 30.21 1023 10 16 0.00 0.00
7:59 pm 19:59 Partly Cloudy 73 22.8 62 16.7 69 69 E 5 7 30.22 1023 10 16 0.00 0.00
8:59 pm 20:59 Partly Cloudy 70 21.1 62 16.7 76 76 ESE 5 7 30.23 1024 10 16 0.00 0.00
9:59 pm 21:59 Clear 69 20.6 62 16.7 78 78 E 5 7 30.23 1024 10 16 0.00 0.00
10:59 pm 22:59 Clear 68 20 61 16.1 78 78 ESE 3 6 30.24 1024 10 16 0.00 0.00
11:59 pm 23:59 Clear 67 19.4 61 16.1 81 81 Calm 30.24 1024 10 16 0.00 0.00

Powered by AerisWeather